Regional Weather Roundup
Issued by NWS

Home | Current Version | Previous Version | Graphics & Text | Print | Product List | Glossary Off
Versions: 1 2 3 4 5 6 7 8 9 10 11 12 13 14 15 16 17 18 19 20 21 22 23 24 25 26 27 28 29 30 31 32 33 34 35 36 37 38 39 40 41 42 43 44 45 46 47 48 49 50

000
ASUS43 KLSX 042157
RWRMO

WEATHER SUMMARY FOR MISSOURI
NATIONAL WEATHER SERVICE SPRINGFIELD MO
500 PM CDT WED MAY 04 2016

NOTE: "FAIR" INDICATES FEW OR NO CLOUDS BELOW 12,000 FEET WITH NO
       SIGNIFICANT WEATHER AND/OR OBSTRUCTIONS TO VISIBILITY.
       CURRENT SKY AND/OR WEATHER CONDITIONS ARE NOT AVAILABLE FOR
       CHILLICOTHE AND FARMINGTON.

MOZ001>031-035>038-043-044-053-054-042300-
...NORTHERN AND WESTERN MISSOURI...

CITY           SKY/WX    TMP DP  RH WIND       PRES   REMARKS
KANSAS CTY INT SUNNY     69  38  32 N16G24    29.97F
LEE`S SUMMIT   SUNNY     69  36  29 N20G26    29.97S
ST JOSEPH      SUNNY     70  35  27 NW17      29.98F
CHILLICOTHE      N/A     68  38  33 NW8G16    29.96S

$$
MOZ066>068-077>081-088>096-101>105-042300-
...SOUTHWEST MISSOURI...

CITY           SKY/WX    TMP DP  RH WIND       PRES   REMARKS
SPRINGFIELD    SUNNY     70  37  29 N18G28    29.92S
JOPLIN         SUNNY     71  40  32 N13       29.96S
BRANSON        SUNNY     72  34  25 NW17G29   29.92S

$$
MOZ032>034-039>042-045>050-055>058-069>072-042300-
...CENTRAL MISSOURI...

CITY           SKY/WX    TMP DP  RH WIND       PRES   REMARKS
COLUMBIA       NOT AVBL
JEFFERSON CITY SUNNY     69  32  25 NW18G25   29.88S
ROLLA          MOSUNNY   66  39  37 N14G26    29.87S
SEDALIA        MOSUNNY   70  38  31 NW24G30   29.94S
WARRENSBURG    MOSUNNY   70  37  30 NW16      29.95S

$$
MOZ051-052-059>065-042300-
...EAST CENTRAL MISSOURI...

CITY           SKY/WX    TMP DP  RH WIND       PRES   REMARKS
ST LOUIS INTL  MOSUNNY   64  38  38 N16G23    29.85R

$$
MOZ072>076-082>087-097>100-106>115-042300-
...SOUTH CENTRAL AND SOUTHEAST MISSOURI...

CITY           SKY/WX    TMP DP  RH WIND       PRES   REMARKS
CAPE GIRARDEAU MOSUNNY   69  41  36 N15G28    29.79R
POPLAR BLUFF   SUNNY     73  40  30 NW16G24   29.78S
WEST PLAINS    MOSUNNY   71  36  27 NW10      29.87R

$$



USA.gov is the U.S. government's official web portal to all federal, state and local government web resources and services.